The Dalles, WA

9:04 AM PST on November 13, 2019 (GMT -0800)
Columbia Gorge Regional-The Dalles

Weather History for KDLS - May, 2019

Change the Weather History Date:

Monday, May 6, 2019

  Actual Average Record
Temperature  
Mean Temperature 68 °F -  
Max Temperature 84 °F 71 °F 94 °F (1987)
Min Temperature 54 °F 47 °F 35 °F (1986)
Cooling Degree Days 3    
Growing Degree Days 18 (Base 50)    
Moisture  
Dew Point 44 °F    
Average Humidity 45    
Maximum Humidity 72    
Minimum Humidity 18    
Precipitation  
Precipitation 0.00 in - - ()
Sea Level Pressure  
Sea Level Pressure 29.88 in    
Wind  
Wind Speed 6 mph (NNW)    
Max Wind Speed 14 mph    
Max Gust Speed 20 mph    
Visibility 10 miles    
Events      
Averages and records for this station are not official NWS values.
T = Trace of Precipitation, MM = Missing Value Source: NWS Daily Summary

Daily Weather History Graph

Daily Weather History Graph

Search for Another Location

Airport or City:

Astronomy

May. 06, 2019 Rise Set
Actual Time 5:45 AM PDT 8:17 PM PDT
Civil Twilight 5:11 AM PDT 8:51 PM PDT
Nautical Twilight 4:30 AM PDT 9:33 PM PDT
Astronomical Twilight 3:42 AM PDT 10:22 PM PDT
Moon 7:10 AM PDT (5/6) 10:23 PM PDT (5/6)
Length of Visible Light 15h 39m
Length of Day
14h 32m
Waxing Crescent, 4% of the Moon is Illuminated
May 6
Waxing Crescent
May 11
First Quarter
May 18
Full
May 26
Last Quarter
Jun 3
New

Hourly Weather History & Observations

Time (PDT) Temp. Dew Point Humidity Pressure Visibility Wind Dir Wind Speed Gust Speed Precip Events Conditions
12:53 AM 63.0 °F 45.0 °F 52% 29.83 in 10.0 mi NW 12.7 mph - N/A   Clear
1:53 AM 60.1 °F 46.0 °F 60% 29.84 in 10.0 mi West 6.9 mph - N/A   Partly Cloudy
2:53 AM 57.0 °F 45.0 °F 64% 29.85 in 10.0 mi West 4.6 mph - N/A   Clear
3:53 AM 57.0 °F 46.0 °F 67% 29.87 in 10.0 mi NW 10.4 mph 19.6 mph N/A   Clear
4:53 AM 55.0 °F 45.0 °F 69% 29.88 in 10.0 mi WNW 3.5 mph - N/A   Clear
5:53 AM 54.0 °F 45.0 °F 72% 29.90 in 10.0 mi NW 9.2 mph - N/A   Clear
6:53 AM 55.0 °F 46.0 °F 72% 29.93 in 10.0 mi Calm Calm - N/A   Clear
7:53 AM 57.0 °F 46.0 °F 67% 29.95 in 10.0 mi NNW 5.8 mph - N/A   Clear
8:53 AM 61.0 °F 46.0 °F 58% 29.95 in 10.0 mi NNE 3.5 mph - N/A   Clear
9:53 AM 64.0 °F 46.0 °F 52% 29.94 in 10.0 mi Calm Calm - N/A   Clear
10:53 AM 69.1 °F 46.9 °F 45% 29.94 in 10.0 mi Variable 3.5 mph - N/A   Clear
11:53 AM 73.9 °F 44.1 °F 34% 29.94 in 10.0 mi Calm Calm - N/A   Clear
12:53 PM 78.1 °F 42.1 °F 28% 29.91 in 10.0 mi Calm Calm - N/A   Clear
1:53 PM 80.1 °F 41.0 °F 25% 29.89 in 10.0 mi East 3.5 mph - N/A   Clear
2:53 PM 82.0 °F 35.1 °F 18% 29.87 in 10.0 mi East 5.8 mph - N/A   Clear
3:53 PM 82.0 °F 37.9 °F 21% 29.85 in 10.0 mi Variable 5.8 mph - N/A   Clear
4:53 PM 82.0 °F 37.0 °F 20% 29.83 in 10.0 mi East 5.8 mph - N/A   Clear
5:53 PM 82.0 °F 37.9 °F 21% 29.82 in 10.0 mi Variable 3.5 mph - N/A   Clear
6:53 PM 80.1 °F 43.0 °F 27% 29.81 in 10.0 mi East 4.6 mph - N/A   Clear
7:53 PM 75.9 °F 44.1 °F 32% 29.81 in 10.0 mi NNE 3.5 mph - N/A   Clear
8:53 PM 69.1 °F 46.9 °F 45% 29.84 in 10.0 mi SW 6.9 mph - N/A   Partly Cloudy
9:53 PM 70.0 °F 45.0 °F 41% 29.86 in 10.0 mi Variable 3.5 mph - N/A   Clear
10:53 PM 69.1 °F 44.1 °F 40% 29.86 in 10.0 mi NW 6.9 mph - N/A   Clear
11:53 PM 69.1 °F 44.1 °F 40% 29.86 in 10.0 mi NNW 13.8 mph - N/A   Clear